TimeCST,TemperatureF,Dew PointF,Humidity,Sea Level PressureIn,VisibilityMPH,Wind Direction,Wind SpeedMPH,Gust SpeedMPH,PrecipitationIn,Events,Conditions,WindDirDegrees,DateUTC
12:15 AM,31.6,21.0,65,30.06,10.0,WNW,4.6,-,N/A,,Overcast,300,2012-12-11 06:15:00
12:35 AM,31.5,20.7,64,30.07,10.0,WNW,5.8,-,N/A,,Overcast,290,2012-12-11 06:35:00
12:55 AM,31.5,20.5,64,30.07,10.0,NW,5.8,-,N/A,,Overcast,320,2012-12-11 06:55:00
1:15 AM,31.5,21.0,65,30.07,10.0,NW,4.6,-,N/A,,Overcast,310,2012-12-11 07:15:00
1:35 AM,31.5,20.3,63,30.07,10.0,West,8.1,-,N/A,,Overcast,280,2012-12-11 07:35:00
1:55 AM,31.3,20.7,65,30.07,10.0,WNW,3.5,-,N/A,,Overcast,300,2012-12-11 07:55:00
2:15 AM,31.1,21.0,66,30.08,10.0,WSW,4.6,-,N/A,,Overcast,250,2012-12-11 08:15:00
2:35 AM,31.1,22.1,69,30.08,10.0,WSW,4.6,-,N/A,,Overcast,250,2012-12-11 08:35:00
2:55 AM,31.3,21.6,67,30.09,10.0,WSW,4.6,-,N/A,,Overcast,250,2012-12-11 08:55:00
3:15 AM,31.1,21.6,68,30.09,10.0,WSW,4.6,-,N/A,,Overcast,250,2012-12-11 09:15:00
3:35 AM,30.9,21.2,67,30.09,10.0,SW,4.6,-,N/A,,Mostly Cloudy,230,2012-12-11 09:35:00
3:55 AM,30.4,21.2,69,30.08,10.0,WSW,5.8,-,N/A,,Overcast,250,2012-12-11 09:55:00
4:15 AM,29.3,23.0,77,30.08,10.0,West,5.8,-,N/A,,Mostly Cloudy,260,2012-12-11 10:15:00
4:35 AM,29.3,22.6,76,30.09,10.0,West,6.9,-,N/A,,Scattered Clouds,270,2012-12-11 10:35:00
4:55 AM,28.4,22.3,78,30.09,10.0,West,6.9,-,N/A,,Clear,270,2012-12-11 10:55:00
5:15 AM,27.3,22.5,82,30.10,10.0,WSW,3.5,-,N/A,,Clear,250,2012-12-11 11:15:00
5:35 AM,26.6,22.5,84,30.10,10.0,WSW,4.6,-,N/A,,Clear,240,2012-12-11 11:35:00
5:55 AM,26.1,22.5,86,30.10,10.0,WSW,4.6,-,N/A,,Clear,250,2012-12-11 11:55:00
6:15 AM,25.7,21.7,85,30.10,10.0,WSW,4.6,-,N/A,,Clear,250,2012-12-11 12:15:00
6:35 AM,25.3,21.7,86,30.11,10.0,WSW,4.6,-,N/A,,Clear,240,2012-12-11 12:35:00
6:55 AM,25.3,21.9,87,30.12,10.0,SSW,3.5,-,N/A,,Clear,210,2012-12-11 12:55:00
7:15 AM,24.8,21.7,88,30.12,10.0,SW,3.5,-,N/A,,Clear,220,2012-12-11 13:15:00
7:35 AM,25.7,22.1,86,30.13,10.0,South,4.6,-,N/A,,Clear,170,2012-12-11 13:35:00
7:55 AM,26.6,23.0,86,30.13,10.0,SSW,5.8,-,N/A,,Clear,200,2012-12-11 13:55:00
8:15 AM,28.2,22.8,80,30.14,10.0,SSW,5.8,-,N/A,,Clear,210,2012-12-11 14:15:00
8:35 AM,29.1,22.8,77,30.14,10.0,SSW,4.6,-,N/A,,Clear,210,2012-12-11 14:35:00
8:55 AM,30.0,22.8,75,30.15,10.0,SSW,4.6,-,N/A,,Clear,200,2012-12-11 14:55:00
9:15 AM,31.1,22.3,70,30.16,10.0,SSW,8.1,-,N/A,,Clear,210,2012-12-11 15:15:00
9:35 AM,31.8,22.5,68,30.16,10.0,South,9.2,-,N/A,,Clear,190,2012-12-11 15:35:00
9:55 AM,32.2,22.6,68,30.16,10.0,SSW,12.7,17.3,N/A,,Clear,200,2012-12-11 15:55:00
10:15 AM,32.7,23.0,67,30.16,10.0,South,12.7,-,N/A,,Clear,190,2012-12-11 16:15:00
10:35 AM,33.1,22.8,66,30.16,10.0,SSW,11.5,17.3,N/A,,Clear,210,2012-12-11 16:35:00
10:55 AM,34.2,23.9,66,30.16,10.0,South,12.7,16.1,N/A,,Clear,190,2012-12-11 16:55:00
11:15 AM,34.9,23.7,64,30.15,10.0,South,13.8,-,N/A,,Clear,190,2012-12-11 17:15:00
11:35 AM,35.1,22.5,60,30.14,10.0,SSW,11.5,-,N/A,,Clear,210,2012-12-11 17:35:00
11:55 AM,36.0,23.2,60,30.14,10.0,South,11.5,-,N/A,,Clear,190,2012-12-11 17:55:00
12:15 PM,36.7,22.8,57,30.13,10.0,South,12.7,-,N/A,,Clear,190,2012-12-11 18:15:00
12:35 PM,37.2,21.4,53,30.13,10.0,SSW,11.5,17.3,N/A,,Clear,200,2012-12-11 18:35:00
12:55 PM,38.1,22.5,53,30.13,10.0,South,10.4,-,N/A,,Clear,190,2012-12-11 18:55:00
1:15 PM,38.3,21.6,51,30.13,10.0,SSW,12.7,-,N/A,,Clear,210,2012-12-11 19:15:00
1:35 PM,39.2,22.1,50,30.13,10.0,SSW,11.5,-,N/A,,Clear,210,2012-12-11 19:35:00
1:55 PM,39.0,21.6,50,30.13,10.0,SSW,11.5,-,N/A,,Clear,200,2012-12-11 19:55:00
2:15 PM,39.6,21.7,49,30.12,10.0,SSW,11.5,16.1,N/A,,Clear,200,2012-12-11 20:15:00
2:35 PM,39.6,22.1,50,30.13,10.0,SSW,6.9,-,N/A,,Clear,200,2012-12-11 20:35:00
2:55 PM,39.6,22.6,51,30.12,10.0,South,9.2,-,N/A,,Clear,180,2012-12-11 20:55:00
3:15 PM,39.2,22.1,50,30.13,10.0,SSW,6.9,-,N/A,,Clear,200,2012-12-11 21:15:00
3:35 PM,39.2,22.3,51,30.13,10.0,SSW,9.2,-,N/A,,Clear,210,2012-12-11 21:35:00
3:55 PM,38.8,21.7,50,30.13,10.0,SSW,8.1,-,N/A,,Clear,200,2012-12-11 21:55:00
4:15 PM,37.4,22.6,55,30.13,10.0,South,5.8,-,N/A,,Clear,190,2012-12-11 22:15:00
4:35 PM,35.2,24.3,64,30.13,10.0,South,4.6,-,N/A,,Clear,180,2012-12-11 22:35:00
4:55 PM,33.6,25.0,71,30.14,10.0,South,5.8,-,N/A,,Clear,180,2012-12-11 22:55:00
5:15 PM,32.4,24.6,73,30.15,10.0,SSE,3.5,-,N/A,,Clear,160,2012-12-11 23:15:00
5:35 PM,32.9,24.1,70,30.15,10.0,South,5.8,-,N/A,,Clear,180,2012-12-11 23:35:00
5:55 PM,32.4,23.9,71,30.15,10.0,SSE,5.8,-,N/A,,Clear,160,2012-12-11 23:55:00
6:15 PM,32.0,23.9,72,30.16,10.0,South,6.9,-,N/A,,Clear,170,2012-12-12 00:15:00
6:35 PM,32.0,23.7,71,30.16,10.0,South,5.8,-,N/A,,Clear,170,2012-12-12 00:35:00
6:55 PM,32.0,23.0,69,30.16,10.0,South,5.8,-,N/A,,Clear,170,2012-12-12 00:55:00
7:15 PM,32.9,24.4,71,30.17,10.0,South,8.1,-,N/A,,Clear,190,2012-12-12 01:15:00
7:35 PM,32.5,24.8,73,30.18,10.0,South,6.9,-,N/A,,Clear,190,2012-12-12 01:35:00
7:55 PM,31.5,24.3,75,30.18,10.0,South,5.8,-,N/A,,Clear,180,2012-12-12 01:55:00
8:15 PM,31.6,24.8,76,30.19,10.0,South,4.6,-,N/A,,Clear,190,2012-12-12 02:15:00
8:35 PM,32.0,24.8,75,30.20,10.0,SSW,5.8,-,N/A,,Clear,200,2012-12-12 02:35:00
8:55 PM,31.5,24.6,76,30.20,10.0,South,5.8,-,N/A,,Clear,180,2012-12-12 02:55:00
9:15 PM,31.5,24.1,74,30.20,10.0,South,6.9,-,N/A,,Clear,170,2012-12-12 03:15:00
9:35 PM,31.8,24.6,75,30.21,10.0,South,5.8,-,N/A,,Clear,180,2012-12-12 03:35:00
9:55 PM,31.6,24.1,74,30.21,10.0,South,5.8,-,N/A,,Clear,170,2012-12-12 03:55:00
10:15 PM,31.1,24.1,75,30.22,10.0,SSE,3.5,-,N/A,,Clear,160,2012-12-12 04:15:00
10:35 PM,30.7,23.9,76,30.22,10.0,South,5.8,-,N/A,,Clear,170,2012-12-12 04:35:00
10:55 PM,31.5,24.4,75,30.23,10.0,South,8.1,-,N/A,,Clear,170,2012-12-12 04:55:00
11:15 PM,31.5,24.8,76,30.23,10.0,South,8.1,-,N/A,,Clear,180,2012-12-12 05:15:00
11:35 PM,31.1,24.8,77,30.23,10.0,South,6.9,-,N/A,,Clear,180,2012-12-12 05:35:00
11:55 PM,30.9,24.8,78,30.24,10.0,South,4.6,-,N/A,,Clear,170,2012-12-12 05:55:00